Location: Gravi�res
(44.4218°N, 4.0919°E)
Time: 19:32:02
(UTC+00:00)

Daily predictions for brighter satellites

Satellite Brightness Start Highest point End
(mag) Time Altitude Azimuth Time Altitude Azimuth Time Altitude Azimuth
Nadezhda 3 Rocket 4.1 17:55:27 10° N 18:01:52 79° E 18:08:13 10° SSE
Cosmos 1992 Rocket 4.5 17:58:06 10° SSW 18:03:18 67° WNW 18:08:32 10° NNE
ARGOS 3.6 17:58:34 10° SE 18:03:37 41° ENE 18:08:41 10° N
Cosmos 2219 Rocket 2.7 18:03:38 10° S 18:08:44 38° ESE 18:13:54 10° NE
CZ-4 R/B 1.3 18:05:07 10° SSE 18:08:56 61° ENE 18:12:51 10° N
CZ-4B R/B 1.5 18:08:12 10° N 18:11:16 71° WNW 18:14:23 10° SSW
Cosmos 2154 Rocket 4.1 18:05:18 10° S 18:11:30 86° W 18:17:45 10° N
FALCON 9 DEB 4.2 18:11:06 10° NW 18:13:55 28° NNE 18:16:42 10° E
Cosmos 1238 Rocket 4.4 18:13:24 10° SE 18:15:39 15° E 18:17:44 10° NE
ERS-2 2.7 18:12:25 10° NNE 18:15:51 36° E 18:19:15 10° SSE
CZ-2C R/B 3.2 18:11:18 10° NNE 18:16:15 36° E 18:21:05 10° SSE
Cosmos 1689 Rocket 2.5 18:14:41 10° NNE 18:17:24 36° E 18:20:05 10° SSE
SL-08 RB Rocket 4.3 18:14:24 10° SE 18:18:32 36° ENE 18:22:43 10° N
USA 305 4.4 18:15:15 10° NW 18:18:51 25° NNE 18:22:26 10° ENE
NOSS 3-2 (A) 4.1 18:16:33 10° S 18:21:13 29° ESE 18:26:24 10° NE
CREW DRAGON DEMO-1 DEB 3.0 18:18:43 10° SW 18:21:25 44° SE 18:23:59 11° ENE
H-2A R/B 4.2 18:18:10 10° N 18:21:44 29° WNW 18:25:18 10° SW
HJ-1C 3.6 18:19:53 10° SSE 18:23:03 44° ENE 18:26:14 10° N
FALCON 9 DEB 4.2 18:20:32 10° NW 18:23:23 28° NNE 18:25:51 12° E
COSMOS 2428 3.1 18:18:09 10° S 18:23:27 42° ESE 18:28:47 10° NE
SL-16 R/B 4.1 18:21:52 10° WSW 18:26:50 31° NW 18:31:51 10° N
USA 307 4.3 18:29:02 10° NW 18:32:42 27° NNE 18:35:52 12° ENE
SL-8 Rocket 4.0 18:26:39 10° S 18:32:42 57° E 18:38:44 10° NNE
CENTAUR R/B 3.4 18:28:32 10° SSE 18:33:02 24° ESE 18:38:06 10° ENE
USA 306 4.3 18:30:17 10° NW 18:34:00 27° NNE 18:37:06 13° ENE
ATLAS CENTAUR R/B 3.3 18:31:50 10° W 18:34:52 24° NW 18:37:57 10° NNE
Cosmos 1743 4.1 18:36:50 10° SE 18:39:29 18° E 18:42:09 10° NE
Cosmos 1666 2.5 18:37:24 10° S 18:41:07 86° E 18:44:53 10° N
USA 308 4.2 18:39:51 10° NW 18:43:36 29° NNE 18:46:15 16° ENE
Cosmos 1703 Rocket 3.7 18:39:46 10° N 18:44:10 79° W 18:48:29 10° S
Cosmos 2322 3.8 18:38:34 10° SSW 18:44:18 88° WNW 18:50:04 10° NNE
CSL-04 Rocket 3.7 18:39:01 10° SSE 18:44:31 72° ENE 18:49:59 10° N
Cosmos 1339 Rocket 4.5 18:40:04 10° N 18:46:20 75° E 18:52:39 10° SSE
Okean-O 3.1 18:43:20 10° S 18:47:43 63° WSW 18:52:08 10° NNW
Cosmos 1844 Rocket 3.8 18:42:44 10° NW 18:48:03 46° WSW 18:53:20 10° S
BREEZE-M DEB (TANK) 2.8 18:46:36 10° SW 18:48:56 48° SSE 18:50:06 26° E
Cosmos 2366 rocket 4.0 18:44:41 10° S 18:50:55 65° E 18:57:13 10° NNE
H-2A R/B 2.9 18:46:25 10° S 18:51:46 56° W 18:57:07 10° NNW
CSL-04 Debris 4.2 18:46:40 10° SSE 18:52:07 88° ENE 18:57:38 10° NNW
ASTEX 1 3.9 18:48:02 10° NNE 18:52:30 35° E 18:56:57 10° SSE
Cosmos 1777 Rocket 4.0 18:47:27 10° NNW 18:52:43 84° WSW 18:57:55 10° SSE
SJ-6B 3.6 18:52:45 20° ESE 18:54:44 32° ENE 18:58:19 10° N
Ariane Rocket 3.7 18:55:34 19° ESE 18:58:22 33° ENE 19:02:54 10° N
USA 186 2.2 18:59:36 30° NE 18:59:36 30° NE 19:01:27 10° N
Cosmos 2221 Rocket 4.1 18:55:28 10° N 18:59:38 38° ENE 19:02:10 20° SE
Cosmos 1763 Rocket 4.5 18:56:48 10° SSE 19:01:01 25° E 19:05:15 10° NE
OBJECT-B 2.0 19:02:09 26° NE 19:02:09 26° NE 19:04:28 10° NNE
NOSS 3-2 (C) 3.8 18:57:56 10° S 19:02:52 34° ESE 19:08:11 11° NE
Meteor 1-11 Rocket 3.6 18:59:13 10° S 19:04:53 83° E 19:10:29 10° NNE
Okean 1-7 4.2 19:04:04 10° NNW 19:08:13 45° W 19:12:18 10° SSW
YAOGAN 1 4.3 19:04:47 10° SSW 19:08:45 35° W 19:12:43 10° NNW
Cosmos 2360 Rocket 4.0 19:03:58 10° WSW 19:08:57 31° NW 19:13:59 10° N
FALCON 9 DEB 2.9 19:10:12 10° NW 19:13:21 62° NNE 19:13:45 55° ENE
Cosmos 1943 Rocket 4.0 19:11:45 10° N 19:14:38 14° NE 19:15:25 14° NE
Cosmos 1821 Rocket 4.2 19:09:26 10° SSE 19:15:14 43° E 19:20:59 10° NNE
Cosmos 2237 Rocket 2.5 19:10:32 10° S 19:15:51 42° ESE 19:21:12 10° NE
Cosmos 1544 3.1 19:13:34 10° S 19:17:06 51° E 19:20:41 10° NNE
SJ 16-02 1.2 19:12:47 10° NNW 19:17:12 67° ENE 19:19:19 29° SE
Cosmos 1727 Rocket 3.9 19:11:31 10° N 19:17:43 71° E 19:23:55 10° SSE
DMSP B5D2-2 3.9 19:13:28 10° NNE 19:18:43 81° ESE 19:23:55 10° SSW
MOS 1 4.4 19:15:42 22° SE 19:19:10 52° ENE 19:24:39 10° N
Cosmos 2278 Rocket 2.2 19:13:44 10° NNW 19:19:22 60° ENE 19:22:11 29° SE
Cosmos 1536 2.9 19:15:30 10° SSW 19:19:28 75° W 19:23:28 10° N
USA 81 4.3 19:16:05 10° SSE 19:21:03 45° E 19:26:03 10° NNE
FALCON 9 DEB 2.7 19:18:04 10° NW 19:21:14 81° NNE 19:21:22 78° ENE
Okean 3 3.8 19:17:16 10° NNW 19:21:30 66° W 19:25:45 10° S
SL-4 R/B 2.7 19:18:36 10° WNW 19:21:52 37° SW 19:22:57 29° S
SPOT 3 Rocket 4.4 19:24:24 30° ENE 19:24:32 30° ENE 19:29:01 10° N
Cosmos 2218 Rocket 4.3 19:18:54 10° SSW 19:25:16 70° W 19:31:40 10° N
SeaSat 1 2.4 19:20:33 10° NNE 19:25:31 88° WNW 19:30:27 10° SSW
Abrixas rocket 3.1 19:25:04 10° WNW 19:26:46 34° W 19:26:46 34° W
MetOp-A 4.1 19:23:40 10° SSE 19:29:01 88° WSW 19:34:25 10° NNW
Resurs 01 Rocket 3.0 19:31:41 24° NE 19:31:41 24° NE 19:34:15 10° N
SME Rocket 3.7 19:26:15 10° NNE 19:33:21 76° ESE 19:38:02 10° S
Meteor 2-20 Rocket 4.4 19:27:44 10° N 19:33:49 63° ENE 19:37:10 28° SSE
Cosmos 2333 Rocket 3.5 19:31:04 10° SW 19:36:26 41° NW 19:41:51 10° NNE
USA 234 3.3 19:33:09 28° ENE 19:36:33 54° SE 19:42:54 10° SSW
Gbstr 26 Del rocket 3.7 19:32:09 10° NW 19:36:52 59° NNE 19:38:19 44° ENE
Lacrosse 4 Rocket 3.5 19:34:22 10° WSW 19:38:15 29° NW 19:42:12 10° N
Cosmos 1937 Rocket 4.1 19:35:17 10° N 19:39:49 37° NE 19:39:49 37° NE
Cosmos 2123 Rocket 4.4 19:35:00 10° N 19:40:49 39° ENE 19:41:02 39° E
USA 238 DEB 3.5 19:36:02 10° SSW 19:42:34 87° SE 19:49:27 10° NE
USA 238 3.5 19:36:08 10° SSW 19:42:41 86° ESE 19:49:35 10° NE
Resurs 1-3 3.6 19:45:27 61° NE 19:45:27 61° NE 19:49:32 10° N
DELTA 2 R/B (1) 3.8 19:40:27 10° WSW 19:45:51 52° S 19:46:36 48° SSE
IRS-1A Rocket 4.2 19:46:16 29° SSE 19:49:17 88° WSW 19:54:51 10° NNW
FALCON 9 DEB 4.4 19:46:47 10° WNW 19:48:55 35° W 19:48:55 35° W
Cosmos 2219 Rocket 3.7 19:47:37 10° WSW 19:52:42 35° NW 19:57:51 10° N
Cosmos 1238 Rocket 4.2 19:51:11 10° SSW 19:54:58 35° W 19:58:14 10° N
CZ-2C R/B 4.3 19:51:40 10° N 19:56:28 33° WNW 20:01:09 10° SW
USA 305 3.3 19:55:10 10° NW 19:58:46 56° NNW 19:58:46 56° NNW
Cosmos 1980 3.7 19:54:52 10° SSW 20:00:31 82° WNW 20:06:13 10° NNE
Cosmos 1733 Rocket 3.5 19:57:59 10° SSW 20:02:15 59° W 20:06:35 10° N
COSMOS 2428 4.4 20:02:44 10° WSW 20:07:50 33° NW 20:12:57 10° N
NOSS 3-2 (A) 4.0 20:06:04 10° WSW 20:11:35 53° NW 20:18:00 10° NNE
USA 307 3.8 20:08:57 10° NW 20:12:00 45° NW 20:12:00 45° NW
USA 306 3.9 20:10:11 10° NW 20:13:13 45° NW 20:13:13 45° NW
Cosmos 1743 4.4 20:11:27 10° SW 20:14:59 33° WNW 20:18:33 10° N
Cosmos 2369 Rocket 3.9 20:15:18 10° N 20:18:00 20° NNE 20:18:00 20° NNE
Cosmos 1898 Rocket 3.6 20:14:30 10° NNW 20:19:30 73° W 20:19:30 73° W
CENTAUR R/B 2.8 20:17:01 10° SW 20:22:53 67° NW 20:29:57 10° NE
USA 308 4.3 20:19:45 10° NW 20:22:24 37° NW 20:22:24 37° NW
OBJECT-B 4.1 20:35:13 13° WNW 20:35:13 13° WNW 20:36:00 10° NW
Ariane Rocket 4.5 20:35:45 28° SW 20:37:17 33° W 20:41:53 10° NNW
Cosmos 1763 Rocket 4.4 20:37:26 10° SW 20:42:31 46° WNW 20:47:39 10° N
NOSS 3-2 (C) 4.2 20:47:59 10° WSW 20:53:29 47° NW 20:55:55 32° N
SJ 16-02 4.2 20:53:27 10° WNW 20:55:09 12° W 20:56:21 11° WSW
Cosmos 1943 Rocket 3.5 20:53:52 10° NNW 20:56:58 33° N 20:56:58 33° N
Cosmos 2237 Rocket 3.7 20:54:55 10° WSW 21:00:01 33° NW 21:05:09 10° N
Cosmos 2278 Rocket 4.2 20:58:48 10° NW 21:02:56 21° W 21:04:05 20° WSW
Resurs 01 Rocket 4.1 21:09:15 19° NW 21:09:15 19° NW 21:10:48 10° NW
USA 234 3.9 21:20:31 51° WNW 21:20:31 51° WNW 21:25:55 10° WSW
